STARLINK-31850, 59903

Orbit data source: Space-Track

STARLINK-31850, 59903 is a payload satellite owned by SpaceX/Seattle (US) in LEO that was launched on Tue, 28 May 2024 UTC via an FALCON 9 launch vehicle from the Air Force Eastern Test Range (AFETR). Payload-class satellites include a variety of spacecraft equipped with specific instruments for various scientific and technological missions. These include communications satellites like Starlink; space stations such as the ISS; scientific satellites like the Hubble; Earth observation satellites from companies like Planet Labs, Umbra, and HawkEye 360; GPS; miniature CubeSats for education and research; and military/defense satellites.

Loading next visibility...
Identifier
59903, 2024-100U
Orbit
LEO
Country
Flag of USUS
Related business
Manufacturer
SpaceX/Seattle
Mission
Operational Commercial Communications
Bus & Motor
STARLINK V2M, Unknown motor
Mass
730 kg wet, ~700 kg dry
Launch date (UTC)
2024-05-28 (2 years ago)
Launch vehicle
FALCON 9
Launch site
Air Force Eastern Test Range (AFETR)
Object type
Payload
Rocket body
Debris
Shape & HBR
Box + 2 Pan, 17.7 m
Radar Cross Section
33.884 m², Large (>1 m²)

Expand to show TLE details & history
Last TLE update: 7 hours ago

TLE from 7 hours ago
0 STARLINK-31850
1 59903U 24100U   26126.38402405 -.00002112  00000-0 -67246-4 0  9993
2 59903  43.0026 159.2864 0001126 270.6493  89.4230 15.27586516109922
Epoch: 2026-05-06T09:12Z
TLE epoch observation values (Epoch: 2026-05-06T09:12:59.677Z)
Latitude
-0.00001°
Longitude
156.79244°
Altitude
482.798 km
Speed
7.626 km/s
True Right ascension
10h 37m 08s
True Declination
0° 00' 00"
Sunlit
Object was in full shadow at epoch
Visualization orbit readout
Latitude
Unknown
Longitude
Unknown
Altitude
Unknown
Speed
Unknown
Apparent Right ascension
Unknown
Apparent Declination
Unknown
Sunlit
N/A
Visualization observer readout
Local Sidereal Time
00:12:38
Azimuth
Unknown
Elevation
Unknown
Doppler factor
Unknown
Orbital elements
Apogee altitude
485.747 km
Perigee altitude
484.202 km
Semi-major axis
6,863.111 km
Eccentricity
0.00011
Inclination
43.0026°
RAAN
159.2864°
Arg. of periapsis
270.6493°
True anomaly
89.4359°
Mean anomaly
89.423°
Eccentric anomaly
89.42945°
Mean motion
3.81735 °/min
Orbital period
94.31 mins
BSTAR
-0.000067246
Loading maneuver chart data...
Computing Atmospheric mass density...
Loading historical data...
Loading historical data...
Loading historical data...
Loading historical data...
Loading historical data...
Loading historical data...
Loading historical data...

Documentation

Showing up to 5 results
|